GEESAT-6 05

Last updated on Mon Oct 20 2025 00:02:06 GMT+0000 (Coordinated Universal Time)

1 65717U 25214F 25292.27046329 .00005236 00000+0 60896-3 0 9990 2 65717 49.9825 346.0521 0014467 26.1759 333.9909 14.86589035 3725
UTC large
Height (km)
Speed (km/s)
/
Latitude / Longitude
Inclination (degrees)
Orbital Period (minutes)
Azimuth
Elevation
Range (km)
Doppler Factor

Next 0 passes for location: London (51.5072 / 0.1276)

Sorry there are no passes over London.